Location: Anumalkud?ru
(16.4847°N, 80.6636°E)
Time: 14:28:01
(UTC+00:00)

Maqsat-H - Pass Details

Date: 11 April 2026
Orbit: 579 x 26322 km, 8.0° (Epoch: 10 May)

Event Time Altitude Azimuth Distance (km) Brightness Sun altitude
Rises 14:28:59 0° 253° (WSW) 2,946 5.9 -23.5°
Reaches altitude 10° 14:30:39 10° 243° (WSW) 2,280 5.0 -23.9°
Maximum altitude 14:35:06 40° 171° (S) 1,791 3.6 -24.9°
Enters shadow 14:37:11 35° 140° (SE) 2,378 4.0 -25.4°
